Location: Bohy
(49.9380°N, 13.5753°E)
Time: 19:06:46
(UTC+00:00)

ARIANE 5 R/B - Pass Details

Date: 19 May 2025
Orbit: 614 x 648 km, 98.0° (Epoch: 16 June)

Event Time Altitude Azimuth Distance (km) Brightness Sun altitude
Exits shadow 23:01:18 21° 246° (WSW) 1,389 4.1 -20.1°
Maximum altitude 23:02:18 23° 267° (W) 1,322 4.2 -20.1°
Drops below altitude 10° 23:05:47 10° 321° (NW) 2,001 5.8 -20.1°
Sets 23:08:23 0° 336° (NNW) 2,919 7.1 -20.1°
